Address 0x932ae91e44edf41b1d3338d1e72f10c14a2c06bb 4

Txn Hash Method
Block
From
To
Value [Txn Fee]
0x24f12cae0e7879d1dafb3e2eccf11fc4adf19f1be35c55c082499afd3da59aedApprove161449502022-06-17 8:35:0613 days 1 hr ago0x932ae91e44edf41b1d3338d1e72f10c14a2c06bbOUT 0xd3a6eebbe6f6d9197a7fc2aaaf94d8b0ec51f8a80 AVAX0.000767705 26.5
0xf7b6b6db9b6b7d96d865bcd605505f9e27532d0f423966604bb2e138af3e9955Approve161449452022-06-17 8:34:5713 days 1 hr ago0x932ae91e44edf41b1d3338d1e72f10c14a2c06bbOUT Wrapped AVAX0 AVAX0.0007672015 26.5
0x5a231089d83d5966ed141e97ced9c5be5da3e6d0c42c1e2ce4fb14ae93833f10Approve161449372022-06-17 8:34:4113 days 1 hr ago0x932ae91e44edf41b1d3338d1e72f10c14a2c06bbOUT 0x113f413371fc4cc4c9d6416cf1de9dfd7bf747df0 AVAX0.000767705 26.5
0x9aadb35b73ebf5c74c4e6365579e8862a7dcc7f24e53ee7ccc59dab061757db4Approve161449312022-06-17 8:34:2913 days 1 hr ago0x932ae91e44edf41b1d3338d1e72f10c14a2c06bbOUT 0x2b48ff2ca4374562cdeea82534519076105663f20 AVAX0.000770302 26.5
0x345fe608340ea89bd32bd2d722f143a13cd94ff80d4dd68d5ac8421514262554Approve161073642022-06-16 11:53:5213 days 22 hrs ago0x932ae91e44edf41b1d3338d1e72f10c14a2c06bbOUT Wonderland: Time Token0 AVAX0.0007683675 26.5
0xd9ebf2e076d321f12523f6762a7a2665660c9b420eefcfba80335c69d8707d27Approve161057432022-06-16 10:59:5813 days 23 hrs ago0x932ae91e44edf41b1d3338d1e72f10c14a2c06bbOUT 0xb382247667fe8ca5327ca1fa4835ae77a9907bc80 AVAX0.000767705 26.5
0x5e2b4ddaed38ccf0dffcfb63fbd72b6aa2837e1496e79fd6de120c0f2fea9b7eApprove161057382022-06-16 10:59:4813 days 23 hrs ago0x932ae91e44edf41b1d3338d1e72f10c14a2c06bbOUT 0xd3d477df7f63a2623464ff5be6746981fded026f0 AVAX0.000767705 26.5
0x86de34788620bf401f01cc5eabcf2cc48401578fb43c808d609dbedbcabdd740Approve161057282022-06-16 10:59:2813 days 23 hrs ago0x932ae91e44edf41b1d3338d1e72f10c14a2c06bbOUT Grape Finance: WINE Token0 AVAX0.0007691095 26.5
0x8c3c71d7badb140f5b68a967d709e7e14f2b45b4fb024c8571cea65185802ca1Approve161057232022-06-16 10:59:1613 days 23 hrs ago0x932ae91e44edf41b1d3338d1e72f10c14a2c06bbOUT Grape Finance: GRAPE Token0 AVAX0.0007696925 26.5
0xf8a1da5d4a395a05cd81361b98a3693886f956865ddffba8cbc111060e00973cApprove161057162022-06-16 10:59:0113 days 23 hrs ago0x932ae91e44edf41b1d3338d1e72f10c14a2c06bbOUT 0x00cb5b42684da62909665d8151ff80d1567722c30 AVAX0.000773650935 26.705244567
0xdb16b5b827ceaec508ee08e4afb03673c46b3405a470fb79f6b9676b2b632e4fApprove161057052022-06-16 10:58:4513 days 23 hrs ago0x932ae91e44edf41b1d3338d1e72f10c14a2c06bbOUT Grape Finance: WINE Token0 AVAX0.0007691095 26.5
0xc3df508aaab79b93daa92f151adcd9ce9c319ca086bc98b315caa16d7ca7d137Approve161057002022-06-16 10:58:3313 days 23 hrs ago0x932ae91e44edf41b1d3338d1e72f10c14a2c06bbOUT Abracadabra.money: MIM Token0 AVAX0.0007718655 26.5
0x3cda1b3a415880194ef178a3282c365d7fb23c10a8efa97eddeed7ff29e8920cApprove161056722022-06-16 10:57:4613 days 23 hrs ago0x932ae91e44edf41b1d3338d1e72f10c14a2c06bbOUT SmartCoin: SmarterCoin0 AVAX0.000769719 26.5
0x7fb904293b4b28fc5903b3dd0835899c99e888aa39bfb755e0f993903f34c741Approve161056682022-06-16 10:57:3813 days 23 hrs ago0x932ae91e44edf41b1d3338d1e72f10c14a2c06bbOUT 0x542fa0b261503333b90fe60c78f2beed16b7b7fd0 AVAX0.0007890905 26.5
0x4b98f3c996cda56b6b6f877ce8296a7476a170113de18588aceb5e04a00b74faApprove161056562022-06-16 10:57:1413 days 23 hrs ago0x932ae91e44edf41b1d3338d1e72f10c14a2c06bbOUT 0x637afeff75ca669ff92e4570b14d6399a658902f0 AVAX0.0007684735 26.5
0xf1c0ffeaf4563aa5a0de76d0573cdfbdd84c63a1c4f5f115a0522c480215bfdbApprove161056472022-06-16 10:56:5613 days 23 hrs ago0x932ae91e44edf41b1d3338d1e72f10c14a2c06bbOUT 0x82fe038ea4b50f9c957da326c412ebd73462077c0 AVAX0.0007684735 26.5
0x2c9269f283a00941d9811fd99fb06661ef6aab4ab88dc1bd346ab32d2a850829Approve161056432022-06-16 10:56:4513 days 23 hrs ago0x932ae91e44edf41b1d3338d1e72f10c14a2c06bbOUT Abracadabra.Money: Spell Token0 AVAX0.0007718655 26.5
0x916a6c12f6d1a26a13d56b72b84bcb3556d680998799e5c670e07dc2d1db901aApprove161056362022-06-16 10:56:3413 days 23 hrs ago0x932ae91e44edf41b1d3338d1e72f10c14a2c06bbOUT Abracadabra.Money: Spell Token0 AVAX0.0007718655 26.5
0xddeeef912577c5c33c6fab2ecac2e97b2067acc524f4ee4ac660da3e7c1e3587Approve161056302022-06-16 10:56:2113 days 23 hrs ago0x932ae91e44edf41b1d3338d1e72f10c14a2c06bbOUT 0xfc108f21931576a21d0b4b301935dac80d9e50860 AVAX0.0007712295 26.5
0xf0e7b4882d85bd47ffe8af6f214648e7302ea298b5b4e096f5ef952b5a7d0fa0Approve161056222022-06-16 10:56:0613 days 23 hrs ago0x932ae91e44edf41b1d3338d1e72f10c14a2c06bbOUT 0xbddffc95fdc446c10d26519611372a46490218a30 AVAX0.000766486 26.5
0x5f2f7f682be10883d1d1402adb10a0bb1f0b344f5642d54732b3672af3bf2dd2Approve161056152022-06-16 10:55:5213 days 23 hrs ago0x932ae91e44edf41b1d3338d1e72f10c14a2c06bbOUT 0x22015b828c03ab138cc31e4b78cc7711a7494cb80 AVAX0.000766486 26.5
0x65543ad92217fe2e4dcc44e64cf8b8f112b0cc276d5c5a14785915f18961c3c7Approve161056102022-06-16 10:55:4213 days 23 hrs ago0x932ae91e44edf41b1d3338d1e72f10c14a2c06bbOUT Grape Finance: GRAPE Token0 AVAX0.0007696925 26.5
0x7df8dcbd66b0f29b09c03b97d3b26c8f09245bfb958e0c53c21761ea70ccc72dApprove161056062022-06-16 10:55:2913 days 23 hrs ago0x932ae91e44edf41b1d3338d1e72f10c14a2c06bbOUT 0x65378b697853568da9ff8eab60c13e1ee9f4a6540 AVAX0.0007869705 26.5
0x8b0cdf37c99c9b54eff86aff131cf8ed731271bac9df6006975131aa1a6f8749Approve161055992022-06-16 10:55:1913 days 23 hrs ago0x932ae91e44edf41b1d3338d1e72f10c14a2c06bbOUT 0xf18ecd11d87c7479f8cd2ebe29abad04c97378dd0 AVAX0.000769083 26.5
0xb853db99f8a13e9b3637b004a637affc1f0771567d63b62f3bb01b047c05bee9Approve161055902022-06-16 10:55:0313 days 23 hrs ago0x932ae91e44edf41b1d3338d1e72f10c14a2c06bbOUT Grape Finance: GRAPE Token0 AVAX0.0007696925 26.5
[ Download CSV Export 
Latest 6 internal transactions
Parent Txn Hash Block From To Value
0xb4cfcfedfc2a854a8677dbb8cfca6856ed051fd7c5c855b20a67b719cc0e2ec8100595432022-01-26 1:07:06155 days 9 hrs ago Wrapped AVAX0x932ae91e44edf41b1d3338d1e72f10c14a2c06bb0.000091384258254622 AVAX
0x6ed3cb94955909f436e15d8f8239be4810ea33f3fd7f7a6d20506d551d71133298847632022-01-22 0:51:58159 days 9 hrs ago Pangolin: Router0x932ae91e44edf41b1d3338d1e72f10c14a2c06bb0.000000166763868255 AVAX
0x63d74f879ca87a5f29700567688e10b51ffde6bd2a3e73ec6d77a848ba13b16696540262022-01-16 16:36:18164 days 17 hrs ago Pangolin: Router0x932ae91e44edf41b1d3338d1e72f10c14a2c06bb0.000000045028741013 AVAX
0x09e15ac7f83aeecc1b9cd03802a15baa250fac7868713c07f3c8d130c24fe04e95765732022-01-14 22:32:03166 days 11 hrs ago Wrapped AVAX0x932ae91e44edf41b1d3338d1e72f10c14a2c06bb0.1245 AVAX
0x805fe4cc80e96b7f72de567b45ce59e218b19d444ed1108f32687f9db13bbce495382202022-01-14 1:42:54167 days 8 hrs ago 0x38bb7b9b87bdfbed883aaf50a2f411d330fe32d60x932ae91e44edf41b1d3338d1e72f10c14a2c06bb0.000902442357428306 AVAX
0x67955608636c3db50a3f09f714f010fbece8fa853fb2e1025f596a9b0976c49a89946092022-01-01 11:46:41179 days 22 hrs ago Wrapped AVAX0x932ae91e44edf41b1d3338d1e72f10c14a2c06bb0.017769243031055906 AVAX
[ Download CSV Export 
Loading

Contract Name:
0

Compiler Version
0

Optimization Enabled:
0

Other Settings:
-NA-
Block Transaction Gas Used Reward
Age Block Fee Address BC Fee Address Voting Power Jailed Incoming
Block Uncle Number Difficulty Gas Used Reward
Loading
Make sure to use the "Vote Down" button for any spammy posts, and the "Vote Up" for interesting conversations.